DW1029 Belmopan BZ current weather conditions

sailwx.info

Wind from 228

Air temperature 24.4° C
Dewpoint 22.5° C

Last reported at 2020-Aug-04 04:01 UTC.
Time now 2020-Aug-04 05:12 UTC

Location: N 17°15' W 088°46'.
View on Google Maps.

See reports from other nearby stations

  
Tides and Currents Weather Stations Pressure Air Temp Water Temp Dewpoint Dewpoint Depression Visibility Wind Speed Wind Dir Waves Ship Positions
date/time (UTC)wind fromknots sea level pressurealtimeterstation pressurevisibilityair tempwater tempwave heightnotes
2020-Aug-04 04:01 228 24.4
2020-Aug-04 03:30 228 24.4
2020-Aug-04 03:16 322 25.0
2020-Aug-04 03:01 322 24.4
2020-Aug-04 02:31 294 24.4
2020-Aug-04 02:15 215 24.4
2020-Aug-04 02:00 215 24.4
2020-Aug-04 01:30 215 24.4
2020-Aug-04 01:15 229 25.0
2020-Aug-04 01:00 280 25.0
2020-Aug-04 00:30 159 24.4
2020-Aug-04 00:16 148 2 gusting 10 24.4
2020-Aug-04 00:00 076 24.4
2020-Aug-03 23:30 015 8 gusting 19 26.7
2020-Aug-03 23:15 120 30.6
2020-Aug-03 23:00 074 31.7
2020-Aug-03 22:30 062 32.2
2020-Aug-03 22:15 045 1 gusting 6 32.2
2020-Aug-03 22:01 094 32.2
2020-Aug-03 21:30 080 1 gusting 8 31.7
2020-Aug-03 21:15 061 5 gusting 11 31.7
2020-Aug-03 21:00 013 6 gusting 12 31.1
2020-Aug-03 20:30 074 7 gusting 13 30.0
2020-Aug-03 20:15 056 10 gusting 17 32.2
2020-Aug-03 20:00 329 34.4
2020-Aug-03 19:30 337 34.4
2020-Aug-03 19:15 301 33.9
2020-Aug-03 19:00 331 33.3
2020-Aug-03 18:30 323 34.4
2020-Aug-03 18:15 289 0 gusting 6 33.9
2020-Aug-03 18:00 294 3 gusting 6 32.8
2020-Aug-03 17:17 269 32.2
2020-Aug-03 17:01 306 31.1
2020-Aug-03 16:47 271 31.1
2020-Aug-03 16:31 308 31.7
2020-Aug-03 16:16 336 3 gusting 7 31.7
2020-Aug-03 16:01 306 31.7
2020-Aug-03 15:47 315 2 gusting 6 30.6
2020-Aug-03 15:31 281 3 gusting 8 30.6
2020-Aug-03 15:15 268 1 gusting 7 30.0
2020-Aug-03 15:00 282 29.4
2020-Aug-03 14:45 293 28.9
2020-Aug-03 14:30 233 28.9
2020-Aug-03 14:16 263 2 gusting 6 28.3
2020-Aug-03 14:01 246 28.3
2020-Aug-03 13:45 257 26.7
2020-Aug-03 13:30 266 26.7
2020-Aug-03 13:15 282 26.1
2020-Aug-03 13:00 240 25.6
2020-Aug-03 12:45 240 25.6
2020-Aug-03 12:30 240 25.6
2020-Aug-03 12:15 234 25.0
2020-Aug-03 12:00 234 25.0
2020-Aug-03 11:45 234 24.4
2020-Aug-03 11:31 234 25.0
2020-Aug-03 11:16 234 24.4
2020-Aug-03 11:02 234 24.4
2020-Aug-03 10:46 234 24.4
2020-Aug-03 10:31 234 24.4
2020-Aug-03 10:16 229 24.4
2020-Aug-03 10:01 251 25.0
2020-Aug-03 09:46 247 25.0
2020-Aug-03 09:31 247 25.0
2020-Aug-03 09:16 247 25.0
2020-Aug-03 09:02 239 25.0
2020-Aug-03 08:47 252 25.0
2020-Aug-03 08:32 261 25.6
2020-Aug-03 08:17 261 25.6
2020-Aug-03 08:02 242 25.6
2020-Aug-03 07:46 240 25.6
2020-Aug-03 07:31 238 25.6
2020-Aug-03 07:17 238 25.6
2020-Aug-03 07:01 235 25.6
2020-Aug-03 06:46 227 25.6
2020-Aug-03 06:31 226 26.1
2020-Aug-03 06:16 219 26.1
2020-Aug-03 06:01 250 26.1
2020-Aug-03 05:46 267 26.1
2020-Aug-03 05:31 115 26.1
2020-Aug-03 05:16 115 26.1
2020-Aug-03 05:00 115 26.1
2020-Aug-03 04:46 113 26.7
2020-Aug-03 04:32 113 27.2
2020-Aug-03 04:16 113 27.2
2020-Aug-03 04:01 113 27.2
2020-Aug-03 03:45 103 27.2
2020-Aug-03 03:31 078 27.2
2020-Aug-03 03:16 077 27.2
2020-Aug-03 03:01 056 27.2
2020-Aug-03 02:46 016 27.8
2020-Aug-03 02:31 016 27.8
2020-Aug-03 02:16 016 27.8
2020-Aug-03 02:01 016 27.8
2020-Aug-03 01:46 016 27.8
2020-Aug-03 01:31 015 28.3
2020-Aug-03 01:17 015 28.3
2020-Aug-03 01:01 015 28.9
2020-Aug-03 00:46 013 28.9
2020-Aug-03 00:31 013 28.9
2020-Aug-03 00:16 013 29.4
2020-Aug-03 00:01 350 30.0
2020-Aug-02 23:48 349 30.6
2020-Aug-02 23:32 028 31.1
2020-Aug-02 23:16 030 31.7
2020-Aug-02 23:00 041 31.7
2020-Aug-02 22:47 053 31.7
2020-Aug-02 22:30 017 31.7
2020-Aug-02 22:16 005 32.2
2020-Aug-02 22:01 038 4 gusting 6 32.8
2020-Aug-02 21:46 360 32.8
2020-Aug-02 21:31 037 4 gusting 8 33.3
2020-Aug-02 21:16 350 0 gusting 7 33.3
2020-Aug-02 21:02 333 33.3
2020-Aug-02 20:46 355 33.3
2020-Aug-02 20:31 355 32.2
2020-Aug-02 20:15 355 32.8
2020-Aug-02 20:01 326 3 gusting 6 32.2
2020-Aug-02 19:46 314 32.2
2020-Aug-02 19:32 317 31.7
2020-Aug-02 19:16 310 4 gusting 7 31.7
2020-Aug-02 19:00 355 30.6
2020-Aug-02 18:45 262 31.1
2020-Aug-02 18:31 298 30.0
2020-Aug-02 18:15 327 1 gusting 6 28.3
2020-Aug-02 18:00 242 28.3
2020-Aug-02 17:45 234 27.2
2020-Aug-02 17:30 254 26.1
2020-Aug-02 17:15 251 1 gusting 4 26.1
2020-Aug-02 17:00 228 26.1
2020-Aug-02 16:45 239 25.6
2020-Aug-02 16:30 239 25.0
2020-Aug-02 16:16 248 25.0
2020-Aug-02 16:01 271 25.0
2020-Aug-02 15:49 233 25.0
2020-Aug-02 15:30 233 25.0
2020-Aug-02 15:16 234 25.0
2020-Aug-02 15:01 223 25.6
2020-Aug-02 14:46 178 25.6
2020-Aug-02 14:32 231 25.6
2020-Aug-02 14:16 218 25.6
2020-Aug-02 14:01 238 25.6
2020-Aug-02 13:31 221 25.6
2020-Aug-02 13:16 246 1 gusting 6 25.6
2020-Aug-02 13:01 270 25.0
2020-Aug-02 12:45 252 25.0
2020-Aug-02 12:31 232 25.0
2020-Aug-02 12:16 249 25.0
2020-Aug-02 12:00 249 25.0
2020-Aug-02 11:46 249 24.4
2020-Aug-02 11:30 249 25.0
2020-Aug-02 11:15 254 25.0
2020-Aug-02 11:01 250 25.0
2020-Aug-02 10:46 242 25.0
2020-Aug-02 10:30 211 25.0
2020-Aug-02 10:15 223 25.0
2020-Aug-02 10:00 223 25.0
2020-Aug-02 09:45 238 25.0
2020-Aug-02 09:30 208 25.0
2020-Aug-02 09:16 147 25.0
2020-Aug-02 09:01 141 25.0
2020-Aug-02 08:45 141 25.0
2020-Aug-02 08:30 141 25.6
2020-Aug-02 08:15 140 25.6
2020-Aug-02 08:00 140 25.6
2020-Aug-02 07:45 140 25.6
2020-Aug-02 07:30 138 26.1
2020-Aug-02 07:15 138 26.1
2020-Aug-02 07:00 138 26.1
2020-Aug-02 06:46 138 26.7
2020-Aug-02 06:30 138 26.7
2020-Aug-02 06:15 138 26.7
2020-Aug-02 06:00 136 27.2
2020-Aug-02 05:46 136 27.2
2020-Aug-02 05:30 136 27.2
2020-Aug-02 05:15 136 27.2
2020-Aug-02 05:01 136 27.2